KT2UU-13 Weather Reports


time (UTC)temp
F
wind
direction
speed
knots
gust
knots
rain 1hr
in
rain 24hr
in
rain mn
in
humidity
%
barometer
mb
20260905081841 74 215 0.0 0.0 0.00 0.00 0.00 99 1015.3
20260905081336 74 215 0.0 0.0 0.00 0.00 0.00 99 1015.4
20260905080835 74 215 0.0 0.0 0.00 0.00 0.00 99 1015.2
20260905080335 74 215 0.0 0.0 0.00 0.00 0.00 99 1015.4
20260905075833 74 215 0.0 0.0 0.00 0.00 0.00 99 1015.4
20260905075328 74 215 0.0 0.0 0.00 0.00 0.00 99 1015.4
20260905074827 74 212 0.0 0.0 0.00 0.00 0.00 99 1015.4
20260905074323 74 213 0.0 0.0 0.00 0.00 0.00 99 1015.4
20260905073819 74 213 0.0 0.0 0.00 0.00 0.00 99 1015.0
20260905073313 74 213 0.0 0.0 0.00 0.00 0.00 99 1015.3
20260905072808 74 213 0.0 0.0 0.00 0.00 0.00 99 1015.1
20260905072306 74 208 0.0 0.0 0.00 0.00 0.00 99 1015.1
20260905071800 74 208 0.0 0.0 0.00 0.00 0.00 98 1015.2
20260905071256 74 208 0.0 0.0 0.00 0.00 0.00 98 1015.2
20260905070750 75 208 0.0 0.0 0.00 0.00 0.00 98 1015.3
20260905070247 75 208 0.0 0.0 0.00 0.00 0.00 98 1015.1
20260905065745 75 208 0.0 0.0 0.00 0.00 0.00 98 1015.2
20260905065239 75 215 0.0 0.0 0.00 0.00 0.00 98 1015.3
20260905064734 75 215 0.0 0.0 0.00 0.00 0.00 98 1015.2
20260905064230 75 215 0.0 0.0 0.00 0.00 0.00 97 1015.0
20260905063728 75 215 0.0 0.0 0.00 0.00 0.00 97 1015.3
20260905063224 75 213 0.0 0.0 0.00 0.00 0.00 97 1015.0
20260905062720 75 213 0.0 0.0 0.00 0.00 0.00 96 1015.1
20260905062219 75 213 0.0 0.0 0.00 0.00 0.00 96 1015.0
20260905061714 75 215 0.0 0.0 0.00 0.00 0.00 96 1014.8
20260905061209 76 215 0.0 0.0 0.00 0.00 0.00 96 1015.0
20260905060704 76 215 0.0 0.0 0.00 0.00 0.00 96 1015.2
20260905060201 76 212 0.0 0.0 0.00 0.00 0.00 96 1015.1
20260905055659 76 208 0.0 0.0 0.00 0.00 0.00 96 1015.3
20260905055154 76 216 0.0 0.0 0.00 0.00 0.00 96 1015.2
20260905054649 76 216 0.0 0.0 0.00 0.00 0.00 96 1015.2
20260905054145 76 216 0.0 0.0 0.00 0.00 0.00 95 1015.2
20260905053645 76 207 0.0 0.0 0.00 0.00 0.00 96 1015.1
20260905053140 76 207 0.0 0.0 0.00 0.00 0.00 95 1015.4
20260905052639 76 207 0.0 0.0 0.00 0.00 0.00 95 1015.4
20260905052135 76 207 0.0 0.0 0.00 0.00 0.00 95 1015.4
20260905051629 76 216 0.0 0.0 0.00 0.00 0.00 95 1015.5
20260905051126 76 215 0.0 0.0 0.00 0.00 0.00 94 1015.4
20260905050622 76 215 0.0 0.0 0.00 0.00 0.00 94 1015.6
20260905050119 76 215 0.0 0.0 0.00 0.00 0.00 94 1015.6
20260905045618 76 213 0.0 0.0 0.00 0.00 0.00 95 1015.6
20260905045114 76 213 0.0 0.0 0.00 0.00 0.00 95 1015.7
20260905044614 76 207 0.0 0.0 0.00 0.00 0.00 95 1015.9
20260905044109 76 207 0.0 0.0 0.00 0.00 0.00 95 1015.6
20260905043607 77 215 0.0 0.0 0.00 0.00 0.00 95 1015.4
20260905043103 76 215 0.0 0.0 0.00 0.00 0.00 95 1015.7
20260905042601 77 215 0.0 0.0 0.00 0.00 0.00 95 1015.6
20260905042057 77 215 0.0 0.0 0.00 0.00 0.00 95 1015.8
20260905041552 77 215 0.0 0.0 0.00 0.00 0.00 95 1015.8
20260905041048 77 215 0.0 0.0 0.00 0.00 0.00 94 1015.6
20260905040547 77 215 0.0 0.0 0.00 0.00 0.00 94 1015.5
20260905040046 77 207 0.0 0.0 0.00 0.00 0.00 94 1015.6
20260905035541 77 215 0.0 0.0 0.00 0.00 0.00 94 1015.9
20260905035038 77 213 0.0 0.0 0.00 0.00 0.00 94 1015.9
20260905034533 77 215 0.0 0.0 0.00 0.00 0.00 94 1016.1
20260905034033 78 213 0.0 0.0 0.00 0.00 0.00 94 1015.9
20260905033527 78 213 0.0 0.0 0.00 0.00 0.00 93 1015.9
20260905033023 78 213 0.0 0.0 0.00 0.00 0.00 93 1015.9
20260905032517 78 207 0.0 0.0 0.00 0.00 0.00 93 1016.0
20260905032013 78 213 0.0 0.0 0.00 0.00 0.00 93 1016.0
20260905031509 78 213 0.0 0.0 0.00 0.00 0.00 92 1015.9
20260905031003 79 213 0.0 0.0 0.00 0.00 0.00 92 1016.2
20260905030459 79 207 0.0 0.0 0.00 0.00 0.00 92 1015.9
20260905025957 79 207 0.0 0.0 0.00 0.00 0.00 92 1016.0
20260905025453 79 207 0.0 0.0 0.00 0.00 0.00 92 1016.1
20260905024949 79 213 0.0 0.0 0.00 0.00 0.00 90 1016.0
20260905024449 79 215 0.0 0.0 0.00 0.00 0.00 90 1016.2
20260905023940 79 213 0.0 0.0 0.00 0.00 0.00 90 1016.0
20260905023434 80 213 0.0 0.0 0.00 0.00 0.00 89 1016.2
20260905022933 80 207 0.0 0.0 0.00 0.00 0.00 88 1016.1
20260905022428 80 215 0.0 0.0 0.00 0.00 0.00 87 1016.3
20260905021923 80 215 0.0 0.0 0.00 0.00 0.00 88 1016.2
20260905021418 80 215 0.0 0.0 0.00 0.00 0.00 85 1016.2
20260905020914 79 215 0.0 0.0 0.00 0.00 0.00 86 1016.2
20260905020412 80 215 0.0 0.0 0.00 0.00 0.00 87 1016.3
20260905015912 80 211 0.0 0.0 0.00 0.00 0.00 87 1016.2
20260905015410 80 215 0.0 0.0 0.00 0.00 0.00 88 1016.1
20260905014910 80 215 0.0 0.0 0.00 0.00 0.00 88 1016.1
20260905014405 80 215 0.0 0.0 0.00 0.00 0.00 88 1016.2
20260905013900 81 213 0.0 0.0 0.00 0.00 0.00 87 1016.1
20260905013357 81 213 0.0 0.0 0.00 0.00 0.00 86 1016.0
20260905012852 81 213 0.0 0.0 0.00 0.00 0.00 85 1016.1
20260905012348 81 207 0.0 0.0 0.00 0.00 0.00 84 1016.0
20260905011844 81 213 0.0 0.0 0.00 0.00 0.00 84 1016.0
20260905011339 81 207 0.0 0.0 0.00 0.00 0.00 84 1016.1
20260905010835 82 213 0.0 0.0 0.00 0.00 0.00 84 1016.0
20260905010330 82 215 0.0 0.0 0.00 0.00 0.00 84 1016.0
20260905005826 82 213 0.0 0.0 0.00 0.00 0.00 83 1015.9
20260905005321 82 213 0.0 0.0 0.00 0.00 0.00 84 1016.0
20260905004816 82 213 0.0 0.0 0.00 0.00 0.00 84 1015.9
20260905004311 82 213 0.0 0.0 0.00 0.00 0.00 84 1015.9
20260905003807 83 206 0.0 0.0 0.00 0.00 0.00 83 1015.8
20260905003303 83 206 0.0 0.0 0.00 0.00 0.00 84 1015.8
20260905002758 83 206 0.0 0.0 0.00 0.00 0.00 84 1015.8
20260905002257 84 213 0.0 0.0 0.00 0.00 0.00 84 1015.6
20260905001752 84 213 0.0 0.0 0.00 0.00 0.00 82 1015.5
20260905001252 85 213 0.0 0.0 0.00 0.00 0.00 82 1015.6
20260905000747 85 206 0.0 0.0 0.00 0.00 0.00 81 1015.8
20260905000243 86 215 0.0 0.0 0.00 0.00 0.00 79 1015.7
20260904235738 87 215 0.0 0.0 0.00 0.00 0.00 79 1015.8
20260904235232 87 211 0.0 0.0 0.00 0.00 0.00 79 1015.9
20260904234727 88 211 0.0 0.0 0.00 0.00 0.00 77 1015.9
20260904234223 89 211 0.0 0.0 0.00 0.00 0.00 75 1015.9
20260904233718 90 212 0.0 0.0 0.00 0.00 0.00 72 1015.6
20260904233215 91 212 0.0 0.0 0.00 0.00 0.00 71 1015.7
20260904232711 91 214 0.0 0.0 0.00 0.00 0.00 71 1015.7
20260904232207 91 214 0.0 0.0 0.00 0.00 0.00 71 1015.5
20260904231702 92 214 0.0 0.0 0.00 0.00 0.00 67 1015.3
20260904231157 92 214 0.0 0.0 0.00 0.00 0.00 65 1015.5
20260904230657 92 214 0.0 0.0 0.00 0.00 0.00 65 1015.5
20260904230152 92 215 0.0 0.0 0.00 0.00 0.00 62 1015.4
20260904225650 93 214 0.0 0.0 0.00 0.00 0.00 61 1015.3
20260904225145 93 212 0.0 0.0 0.00 0.00 0.00 58 1015.3
20260904224639 94 214 0.0 0.0 0.00 0.00 0.00 56 1015.3
20260904224133 94 213 0.0 0.9 0.00 0.00 0.00 54 1015.4
20260904223633 95 213 0.0 1.7 0.00 0.00 0.00 56 1015.2
20260904223128 95 219 0.0 1.7 0.00 0.00 0.00 54 1015.3
20260904222624 95 219 0.0 0.0 0.00 0.00 0.00 54 1015.5
20260904222114 95 219 0.0 0.0 0.00 0.00 0.00 57 1015.3
20260904221614 95 219 0.0 0.0 0.00 0.00 0.00 55 1015.2
20260904221113 94 219 0.0 2.6 0.00 0.00 0.00 56 1015.2
20260904220609 95 215 2.6 3.5 0.00 0.00 0.00 55 1015.1
20260904220104 95 219 0.0 1.7 0.00 0.00 0.00 55 1015.3
20260904215604 95 219 1.7 1.7 0.00 0.00 0.00 52 1015.1
20260904215100 94 215 0.9 3.5 0.00 0.00 0.00 52 1015.2
20260904214555 95 219 0.0 2.6 0.00 0.00 0.00 52 1015.1
20260904214051 95 219 1.7 2.6 0.00 0.00 0.00 52 1015.0
20260904213548 95 210 0.9 2.6 0.00 0.00 0.00 51 1015.1
20260904213045 96 219 0.0 1.7 0.00 0.00 0.00 54 1015.2
20260904212545 96 219 0.0 1.7 0.00 0.00 0.00 54 1015.3
20260904212040 95 219 0.9 2.6 0.00 0.00 0.00 54 1015.4
20260904211539 95 213 1.7 1.7 0.00 0.00 0.00 56 1015.5
20260904211035 94 214 0.0 0.0 0.00 0.00 0.00 57 1015.3
20260904210534 93 212 0.0 1.7 0.00 0.00 0.00 58 1015.5
20260904210030 93 211 0.9 1.7 0.00 0.00 0.00 58 1015.5
20260904205526 94 213 0.0 1.7 0.00 0.00 0.00 58 1015.5
20260904205022 96 222 0.9 3.5 0.00 0.00 0.00 56 1015.7
20260904204518 95 219 0.9 1.7 0.00 0.00 0.00 56 1015.6
20260904204014 96 219 0.0 0.0 0.00 0.00 0.00 55 1015.7
20260904203509 97 219 1.7 2.6 0.00 0.00 0.00 53 1015.8
20260904203006 98 216 1.7 2.6 0.00 0.00 0.00 51 1015.6
20260904202501 96 221 0.0 0.0 0.00 0.00 0.00 53 1015.7
20260904201957 94 219 0.0 3.5 0.00 0.00 0.00 56 1015.7
20260904201452 97 213 1.7 2.6 0.00 0.00 0.00 54 1015.8
20260904200948 97 221 0.9 3.5 0.00 0.00 0.00 53 1015.7
20260904200446 96 219 0.9 2.6 0.00 0.00 0.00 54 1016.0
20260904195941 96 219 0.0 1.7 0.00 0.00 0.00 53 1015.9
20260904195439 95 219 0.0 0.9 0.00 0.00 0.00 55 1016.1
20260904194939 95 213 0.0 0.0 0.00 0.00 0.00 55 1016.3
20260904194434 95 213 0.9 1.7 0.00 0.00 0.00 55 1016.2
20260904193929 96 219 0.0 0.0 0.00 0.00 0.00 54 1016.4
20260904193424 96 219 3.5 5.2 0.00 0.00 0.00 53 1016.6
20260904192919 96 213 0.9 2.6 0.00 0.00 0.00 53 1016.5
20260904192414 95 218 0.0 0.0 0.00 0.00 0.00 55 1016.6
20260904191910 95 214 0.0 0.0 0.00 0.00 0.00 55 1016.6
20260904191406 96 217 0.0 5.2 0.00 0.00 0.00 53 1016.7
20260904190903 95 218 0.0 0.9 0.00 0.00 0.00 55 1016.8
20260904190358 94 218 0.0 3.5 0.00 0.00 0.00 55 1017.0
20260904185855 94 215 0.9 3.5 0.00 0.00 0.00 57 1017.0
20260904185350 94 214 0.9 5.2 0.00 0.00 0.00 57 1017.2
20260904184850 93 211 0.0 0.0 0.00 0.00 0.00 58 1017.1
20260904184344 93 212 1.7 1.7 0.00 0.00 0.00 59 1017.3
20260904183840 95 218 1.7 1.7 0.00 0.00 0.00 59 1017.4
20260904183335 95 218 2.6 2.6 0.00 0.00 0.00 57 1017.4
20260904182830 93 212 0.0 1.7 0.00 0.00 0.00 61 1017.4
20260904182325 93 222 0.0 0.0 0.00 0.00 0.00 61 1017.8
20260904181821 93 214 0.0 1.7 0.00 0.00 0.00 63 1017.5
20260904181321 92 211 1.7 5.2 0.00 0.00 0.00 61 1017.5
20260904180816 93 215 0.9 1.7 0.00 0.00 0.00 61 1017.7
20260904180311 94 218 0.9 1.7 0.00 0.00 0.00 58 1017.7
20260904175810 93 218 0.9 1.7 0.00 0.00 0.00 60 1017.9
20260904175308 94 220 1.7 3.5 0.00 0.00 0.00 59 1017.8
20260904174803 93 212 0.0 0.9 0.00 0.00 0.00 62 1018.1
20260904174259 93 214 0.0 0.9 0.00 0.00 0.00 63 1017.9
20260904173755 92 214 0.0 0.0 0.00 0.00 0.00 63 1018.0
20260904173250 92 212 0.0 3.5 0.00 0.00 0.00 63 1018.1
20260904172746 93 218 0.0 0.0 0.00 0.00 0.00 61 1018.2
20260904172245 92 214 0.0 0.0 0.00 0.00 0.00 64 1018.2
20260904171740 92 217 0.0 1.7 0.00 0.00 0.00 62 1018.3
20260904171235 92 215 0.0 1.7 0.00 0.00 0.00 63 1018.4
20260904170732 91 215 0.0 0.0 0.00 0.00 0.00 66 1018.4
20260904170228 90 227 1.7 3.5 0.00 0.00 0.00 65 1018.5
20260904165726 91 217 0.0 1.7 0.00 0.00 0.00 66 1018.4
20260904165221 90 210 0.0 0.0 0.00 0.00 0.00 68 1018.7
20260904164715 90 215 0.0 1.7 0.00 0.00 0.00 68 1018.6
20260904164210 90 210 0.0 2.6 0.00 0.00 0.00 67 1018.7
20260904163707 90 212 0.9 1.7 0.00 0.00 0.00 66 1018.8
20260904163202 90 217 0.9 1.7 0.00 0.00 0.00 66 1018.7
20260904162700 89 220 0.0 1.7 0.00 0.00 0.00 66 1018.7
20260904162155 89 219 1.7 2.6 0.00 0.00 0.00 66 1019.0
20260904161651 90 219 1.7 2.6 0.00 0.00 0.00 65 1018.9
20260904161146 89 220 0.9 2.6 0.00 0.00 0.00 66 1018.8
20260904160642 89 220 0.9 0.9 0.00 0.00 0.00 67 1019.1
20260904160137 89 215 0.0 0.9 0.00 0.00 0.00 69 1019.1
20260904155632 88 217 0.0 1.7 0.00 0.00 0.00 70 1018.8
20260904155126 88 220 0.0 2.6 0.00 0.00 0.00 71 1019.1
20260904154624 88 219 2.6 3.5 0.00 0.00 0.00 71 1018.9
20260904154119 88 216 1.7 1.7 0.00 0.00 0.00 72 1019.1
20260904153614 87 215 0.0 1.7 0.00 0.00 0.00 71 1018.9
20260904153110 87 215 0.9 1.7 0.00 0.00 0.00 71 1019.0
20260904152606 87 215 0.0 0.0 0.00 0.00 0.00 72 1019.0
20260904152101 86 212 0.0 0.0 0.00 0.00 0.00 73 1019.1
20260904151556 86 217 1.7 2.6 0.00 0.00 0.00 73 1019.0
20260904151055 86 217 2.6 2.6 0.00 0.00 0.00 75 1019.0
20260904150550 86 217 1.7 1.7 0.00 0.00 0.00 76 1019.2
20260904150045 85 217 0.9 2.6 0.00 0.00 0.00 76 1018.9
20260904145544 86 217 0.0 2.6 0.00 0.00 0.00 76 1018.9
20260904145039 86 221 1.7 1.7 0.00 0.00 0.00 74 1018.8
20260904144535 85 212 0.0 1.7 0.00 0.00 0.00 75 1019.0
20260904144031 85 215 0.0 1.7 0.00 0.00 0.00 75 1019.0
20260904143527 85 217 1.7 1.7 0.00 0.00 0.00 75 1019.0
20260904143024 84 215 0.0 0.9 0.00 0.00 0.00 75 1018.8
20260904142520 84 215 0.0 1.7 0.00 0.00 0.00 77 1018.8
20260904142020 84 216 0.0 0.9 0.00 0.00 0.00 77 1018.7
20260904141515 84 217 1.7 1.7 0.00 0.00 0.00 78 1018.8
20260904141010 84 213 0.0 0.0 0.00 0.00 0.00 80 1018.9
20260904140505 84 215 0.0 0.0 0.00 0.00 0.00 79 1018.8
20260904140004 84 216 0.0 0.0 0.00 0.00 0.00 79 1018.8
20260904135458 84 206 0.0 0.0 0.00 0.00 0.00 79 1018.9
20260904134954 83 215 0.0 0.0 0.00 0.00 0.00 81 1018.9
20260904134448 82 215 0.0 0.0 0.00 0.00 0.00 82 1018.9
20260904133943 82 215 0.0 0.0 0.00 0.00 0.00 82 1018.8
20260904133438 82 215 0.0 0.0 0.00 0.00 0.00 83 1018.9
20260904132934 82 215 0.9 1.7 0.00 0.00 0.00 84 1018.9
20260904132429 82 206 0.0 0.0 0.00 0.00 0.00 84 1018.8
20260904131928 81 206 0.0 0.0 0.00 0.00 0.00 85 1018.9
20260904131424 81 215 0.0 0.0 0.00 0.00 0.00 85 1018.7
20260904130920 81 215 0.0 0.0 0.00 0.00 0.00 85 1018.9
20260904130418 81 215 0.0 0.0 0.00 0.00 0.00 85 1019.0
20260904125913 81 215 0.0 0.0 0.00 0.00 0.00 85 1018.8
20260904125410 80 215 0.0 1.7 0.00 0.00 0.00 86 1018.8
20260904124909 80 215 0.0 0.9 0.00 0.00 0.00 86 1018.7
20260904124406 80 216 0.0 1.7 0.00 0.00 0.00 87 1018.8
20260904123901 80 216 0.0 0.0 0.00 0.00 0.00 86 1018.8
20260904123356 80 215 0.0 0.9 0.00 0.00 0.00 86 1018.8
20260904122851 80 215 0.0 0.0 0.00 0.00 0.00 86 1018.9
20260904122350 79 216 0.0 0.0 0.00 0.00 0.00 88 1018.9
20260904121845 78 206 0.0 0.0 0.00 0.00 0.00 91 1018.8
20260904121342 76 213 0.0 0.0 0.00 0.00 0.00 93 1018.7
20260904120838 76 216 0.0 0.0 0.00 0.00 0.00 94 1018.7
20260904120333 75 215 0.0 0.0 0.00 0.00 0.00 96 1018.4
20260904115828 74 216 0.0 0.0 0.00 0.00 0.00 98 1018.5
20260904115324 74 215 0.0 0.0 0.00 0.00 0.00 99 1018.5
20260904114824 73 215 0.0 0.0 0.00 0.00 0.00 99 1018.6
20260904114318 73 215 0.0 0.0 0.00 0.00 0.00 99 1018.5
20260904113813 73 216 0.0 0.0 0.00 0.00 0.00 99 1018.6
20260904113312 72 208 0.0 0.0 0.00 0.00 0.00 99 1018.4
20260904112807 72 208 0.0 0.0 0.00 0.00 0.00 99 1018.5
20260904112305 72 208 0.0 0.0 0.00 0.00 0.00 99 1018.4
20260904111759 72 208 0.0 0.0 0.00 0.00 0.00 99 1018.3
20260904111254 72 208 0.0 0.0 0.00 0.00 0.00 99 1018.4
20260904110750 72 208 0.0 0.0 0.00 0.00 0.00 99 1018.1
20260904110248 73 208 0.0 0.0 0.00 0.00 0.00 99 1018.2
20260904105744 72 216 0.0 0.0 0.00 0.00 0.00 99 1018.1
20260904105239 72 208 0.0 0.0 0.00 0.00 0.00 99 1017.9
20260904104734 72 216 0.0 0.0 0.00 0.00 0.00 99 1018.0
20260904104229 72 216 0.0 0.0 0.00 0.00 0.00 99 1018.0
20260904103726 72 216 0.0 0.0 0.00 0.00 0.00 99 1017.9
20260904103221 72 213 0.0 0.0 0.00 0.00 0.00 99 1018.1
20260904102716 72 213 0.0 0.0 0.00 0.00 0.00 99 1018.0
20260904102212 72 213 0.0 0.0 0.00 0.00 0.00 99 1017.9
20260904101708 72 213 0.0 0.0 0.00 0.00 0.00 99 1018.0
20260904101204 72 213 0.0 0.0 0.00 0.00 0.00 99 1017.8
20260904100659 72 213 0.0 0.0 0.00 0.00 0.00 99 1018.1
20260904100155 72 213 0.0 0.0 0.00 0.00 0.00 99 1018.0
20260904095654 72 215 0.0 0.0 0.00 0.00 0.00 99 1018.1
20260904095149 72 213 0.0 0.0 0.00 0.00 0.00 99 1018.1
20260904094644 72 213 0.0 0.0 0.00 0.00 0.00 99 1018.0
20260904094139 72 215 0.0 0.0 0.00 0.00 0.00 99 1018.0
20260904093637 72 213 0.0 0.0 0.00 0.00 0.00 99 1017.9
20260904093136 72 215 0.0 0.0 0.00 0.00 0.00 99 1017.9
20260904092632 73 215 0.0 0.0 0.00 0.00 0.00 99 1017.8
20260904092128 73 215 0.0 0.0 0.00 0.00 0.00 99 1017.9
20260904091624 73 215 0.0 0.0 0.00 0.00 0.00 99 1017.9
20260904091124 73 215 0.0 0.0 0.00 0.00 0.00 99 1017.7
20260904090619 73 215 0.0 0.0 0.00 0.00 0.00 99 1017.7
20260904090114 73 213 0.0 0.0 0.00 0.00 0.00 99 1017.7
20260904085609 73 215 0.0 0.0 0.00 0.00 0.00 99 1017.7
20260904085108 73 215 0.0 0.0 0.00 0.00 0.00 99 1017.8
20260904084604 73 215 0.0 0.0 0.00 0.00 0.00 99 1017.8
20260904084101 73 215 0.0 0.0 0.00 0.00 0.00 99 1017.9
20260904083556 73 215 0.0 0.0 0.00 0.00 0.00 99 1017.9
20260904083052 73 213 0.0 0.0 0.00 0.00 0.00 99 1017.9
20260904082547 74 208 0.0 0.0 0.00 0.00 0.00 99 1017.6